Tanana, AK

11:26 AM AKST on November 21, 2019 (GMT -0900)
Calhoun Memorial

Weather History for PATA - October, 2019

Change the Weather History Date:

Sunday, October 20, 2019

  Actual Average Record
Temperature  
Mean Temperature 30 °F -  
Max Temperature 32 °F 25 °F 43 °F (2013)
Min Temperature 28 °F 10 °F -19 °F (1983)
Degree Days  
Heating Degree Days 35    
Moisture  
Dew Point 21 °F    
Average Humidity 72    
Maximum Humidity 75    
Minimum Humidity 64    
Precipitation  
Precipitation 0.00 in - - ()
Sea Level Pressure  
Sea Level Pressure 29.73 in    
Wind  
Wind Speed 6 mph (East)    
Max Wind Speed 9 mph    
Max Gust Speed -    
Visibility 10 miles    
Events      
Averages and records for this station are not official NWS values.
T = Trace of Precipitation, MM = Missing Value Source: NWS Daily Summary

Daily Weather History Graph

Daily Weather History Graph

Search for Another Location

Airport or City:

Astronomy

Oct. 20, 2019 Rise Set
Actual Time 9:18 AM AKDT 6:26 PM AKDT
Civil Twilight 8:26 AM AKDT 7:18 PM AKDT
Nautical Twilight 7:28 AM AKDT 8:16 PM AKDT
Astronomical Twilight 6:30 AM AKDT 9:13 PM AKDT
Moon 9:44 PM AKDT (10/20) 6:00 PM AKDT (10/20)
Length of Visible Light 10h 52m
Length of Day
9h 08m
Waning Gibbous, 58% of the Moon is Illuminated
Oct 20
Waning Gibbous
Oct 21
Last Quarter
Oct 27
New
Nov 4
First Quarter
Nov 12
Full

Hourly Weather History & Observations

Time (AKDT) Temp. Windchill Dew Point Humidity Pressure Visibility Wind Dir Wind Speed Gust Speed Precip Events Conditions
1:52 AM 28.9 °F 23.9 °F 19.9 °F 69% 29.70 in 10.0 mi ENE 4.6 mph - N/A   Overcast
2:52 AM 28.9 °F 22.8 °F 21.0 °F 72% 29.71 in 10.0 mi ENE 5.8 mph - N/A   Overcast
3:52 AM 28.9 °F - 21.0 °F 72% 29.71 in 10.0 mi Calm Calm - N/A   Overcast
4:19 AM 28.9 °F 23.9 °F 21.0 °F 72% 29.70 in 10.0 mi NE 4.6 mph - N/A   Overcast
4:29 AM 28.9 °F 23.9 °F 21.0 °F 72% 29.70 in 10.0 mi ENE 4.6 mph - N/A   Overcast
4:52 AM 28.9 °F 23.9 °F 21.0 °F 72% 29.72 in 10.0 mi ENE 4.6 mph - N/A   Overcast
5:52 AM 28.9 °F 25.2 °F 21.0 °F 72% 29.73 in 10.0 mi ENE 3.5 mph - N/A   Overcast
6:31 AM 28.0 °F 20.8 °F 21.0 °F 75% 29.72 in 10.0 mi ENE 6.9 mph - N/A   Overcast
6:52 AM 28.0 °F 19.3 °F 21.0 °F 75% 29.74 in 10.0 mi East 9.2 mph - N/A   Overcast
7:00 AM 28.0 °F 20.0 °F 21.0 °F 75% 29.72 in 10.0 mi East 8.1 mph - N/A   Overcast
7:41 AM 28.0 °F 20.0 °F 21.0 °F 75% 29.72 in 10.0 mi East 8.1 mph - N/A   Overcast
7:52 AM 28.0 °F 19.3 °F 21.0 °F 75% 29.74 in 10.0 mi East 9.2 mph - N/A   Overcast
8:18 AM 28.0 °F 20.0 °F 21.0 °F 75% 29.72 in 10.0 mi East 8.1 mph - N/A   Overcast
8:52 AM 28.0 °F 22.8 °F 21.0 °F 75% 29.74 in 10.0 mi East 4.6 mph - N/A   Overcast
9:52 AM 28.0 °F 20.8 °F 21.0 °F 75% 29.75 in 10.0 mi East 6.9 mph - N/A   Overcast
10:52 AM 28.0 °F 21.7 °F 21.0 °F 75% 29.75 in 10.0 mi East 5.8 mph - N/A   Mostly Cloudy
11:52 AM 28.9 °F 21.9 °F 21.0 °F 72% 29.77 in 10.0 mi East 6.9 mph - N/A   Mostly Cloudy
12:52 PM 30.0 °F 21.7 °F 21.0 °F 69% 29.76 in 10.0 mi ENE 9.2 mph - N/A   Mostly Cloudy
1:52 PM 30.0 °F 21.7 °F 21.0 °F 69% 29.76 in 10.0 mi East 9.2 mph - N/A   Overcast
2:52 PM 30.9 °F 25.2 °F 21.0 °F 67% 29.76 in 10.0 mi East 5.8 mph - N/A   Overcast
3:52 PM 32.0 °F 25.6 °F 21.0 °F 64% 29.75 in 10.0 mi East 6.9 mph - N/A   Overcast
4:52 PM 30.9 °F 24.3 °F 21.0 °F 67% 29.75 in 10.0 mi East 6.9 mph - N/A   Overcast
5:52 PM 30.9 °F 25.2 °F 21.0 °F 67% 29.74 in 10.0 mi East 5.8 mph - N/A   Overcast
6:52 PM 30.0 °F 24.1 °F 19.9 °F 66% 29.74 in 10.0 mi East 5.8 mph - N/A   Overcast
7:52 PM 28.0 °F 21.7 °F 19.9 °F 72% 29.73 in 10.0 mi East 5.8 mph - N/A   Overcast
8:52 PM 28.0 °F 22.8 °F 19.9 °F 72% 29.73 in 10.0 mi East 4.6 mph - N/A   Mostly Cloudy
9:52 PM 28.0 °F - 19.9 °F 72% 29.73 in 10.0 mi Calm Calm - N/A   Overcast
10:52 PM 28.0 °F 21.7 °F 19.9 °F 72% 29.73 in 10.0 mi ENE 5.8 mph - N/A   Overcast
11:52 PM 28.0 °F 20.8 °F 19.9 °F 72% 29.73 in 10.0 mi East 6.9 mph - N/A   Overcast